Time,TemperatureF,DewpointF,PressureIn,WindDirection,WindDirectionDegrees,WindSpeedMPH,WindSpeedGustMPH,Humidity,HourlyPrecipIn,Conditions,Clouds,dailyrainin,SolarRadiationWatts/m^2,SoftwareType,DateUTC
2013-06-06 00:11:00,65.0,56.2,29.10,SSE,157,0.0,0.0,73,0.00,,---,0.00,0.00,VWS V14.01,2013-06-06 04:11:00,
2013-06-06 00:16:00,64.0,54.8,29.10,NE,45,0.0,0.0,72,0.00,,---,0.00,0.00,VWS V14.01,2013-06-06 04:16:00,
2013-06-06 00:21:00,64.0,54.8,29.10,ESE,112,0.0,2.0,72,0.00,,---,0.00,0.00,VWS V14.01,2013-06-06 04:21:00,
2013-06-06 00:26:00,64.0,54.8,29.10,SE,135,0.0,0.0,72,0.00,,---,0.00,0.00,VWS V14.01,2013-06-06 04:26:00,
2013-06-06 00:32:00,64.0,54.8,29.10,North,360,0.0,3.0,72,0.00,,---,0.00,0.00,VWS V14.01,2013-06-06 04:32:00,
2013-06-06 00:37:00,64.0,55.6,29.11,North,360,0.0,0.0,74,0.00,,---,0.00,0.00,VWS V14.01,2013-06-06 04:37:00,
2013-06-06 00:42:00,64.0,55.2,29.11,ESE,112,0.0,2.0,73,0.00,,---,0.00,0.00,VWS V14.01,2013-06-06 04:42:00,
2013-06-06 00:47:00,64.0,55.6,29.11,ESE,112,0.0,0.0,74,0.00,,---,0.00,0.00,VWS V14.01,2013-06-06 04:47:00,
2013-06-06 00:52:00,63.0,54.6,29.11,East,90,0.0,0.0,74,0.00,,---,0.00,0.00,VWS V14.01,2013-06-06 04:52:00,
2013-06-06 00:57:00,63.0,54.6,29.11,East,90,1.0,3.0,74,0.00,,---,0.00,0.00,VWS V14.01,2013-06-06 04:57:00,
2013-06-06 01:02:00,63.0,54.6,29.11,NNE,22,0.0,3.0,74,0.00,,---,0.00,0.00,VWS V14.01,2013-06-06 05:02:00,
2013-06-06 01:07:00,63.0,55.0,29.10,East,90,1.0,1.0,75,0.00,,---,0.00,0.00,VWS V14.01,2013-06-06 05:07:00,
2013-06-06 01:12:00,63.0,55.0,29.10,East,90,0.0,0.0,75,0.00,,---,0.00,0.00,VWS V14.01,2013-06-06 05:12:00,
2013-06-06 01:17:00,63.0,55.0,29.10,ENE,67,0.0,0.0,75,0.00,,---,0.00,0.00,VWS V14.01,2013-06-06 05:17:00,
2013-06-06 01:22:00,62.0,54.4,29.10,ESE,112,0.0,0.0,76,0.00,,---,0.00,0.00,VWS V14.01,2013-06-06 05:22:00,
2013-06-06 01:27:00,62.0,54.4,29.10,ENE,67,0.0,1.0,76,0.00,,---,0.00,0.00,VWS V14.01,2013-06-06 05:27:00,
2013-06-06 01:32:00,62.0,54.4,29.10,NE,45,0.0,0.0,76,0.00,,---,0.00,0.00,VWS V14.01,2013-06-06 05:32:00,
2013-06-06 01:37:00,62.0,54.7,29.10,ESE,112,0.0,0.0,77,0.00,,---,0.00,0.00,VWS V14.01,2013-06-06 05:37:00,
2013-06-06 01:42:00,62.0,54.7,29.10,East,90,0.0,0.0,77,0.00,,---,0.00,0.00,VWS V14.01,2013-06-06 05:42:00,
2013-06-06 01:47:00,62.0,54.7,29.09,ENE,67,0.0,3.0,77,0.00,,---,0.00,0.00,VWS V14.01,2013-06-06 05:47:00,
2013-06-06 01:52:00,62.0,54.7,29.09,East,90,0.0,0.0,77,0.00,,---,0.00,0.00,VWS V14.01,2013-06-06 05:52:00,
2013-06-06 01:57:00,62.0,54.7,29.09,ENE,67,0.0,2.0,77,0.00,,---,0.00,0.00,VWS V14.01,2013-06-06 05:57:00,
2013-06-06 02:02:00,62.0,54.7,29.09,NNE,22,0.0,0.0,77,0.00,,---,0.00,0.00,VWS V14.01,2013-06-06 06:02:00,
2013-06-06 02:07:00,62.0,54.7,29.09,ENE,67,2.0,4.0,77,0.00,,---,0.00,0.00,VWS V14.01,2013-06-06 06:07:00,
2013-06-06 02:12:00,62.0,54.7,29.09,ESE,112,0.0,0.0,77,0.00,,---,0.00,0.00,VWS V14.01,2013-06-06 06:12:00,
2013-06-06 02:17:00,61.0,54.1,29.08,ENE,67,0.0,0.0,78,0.00,,---,0.00,0.00,VWS V14.01,2013-06-06 06:17:00,
2013-06-06 02:22:00,61.0,54.5,29.08,North,360,0.0,0.0,79,0.00,,---,0.00,0.00,VWS V14.01,2013-06-06 06:22:00,
2013-06-06 02:27:00,61.0,54.5,29.09,North,360,0.0,0.0,79,0.00,,---,0.00,0.00,VWS V14.01,2013-06-06 06:27:00,
2013-06-06 02:32:00,61.0,54.5,29.09,NNW,337,0.0,0.0,79,0.00,,---,0.00,0.00,VWS V14.01,2013-06-06 06:32:00,
2013-06-06 02:37:00,61.0,54.8,29.09,NNE,22,0.0,0.0,80,0.00,,---,0.00,0.00,VWS V14.01,2013-06-06 06:37:00,
2013-06-06 02:42:00,61.0,54.8,29.09,ENE,67,0.0,0.0,80,0.00,,---,0.00,0.00,VWS V14.01,2013-06-06 06:42:00,
2013-06-06 02:47:00,61.0,54.8,29.07,North,360,0.0,0.0,80,0.00,,---,0.00,0.00,VWS V14.01,2013-06-06 06:47:00,
2013-06-06 02:52:00,60.0,53.8,29.07,East,90,0.0,0.0,80,0.00,,---,0.00,0.00,VWS V14.01,2013-06-06 06:52:00,
2013-06-06 02:57:00,60.0,53.8,29.07,SE,135,0.0,0.0,80,0.00,,---,0.00,0.00,VWS V14.01,2013-06-06 06:57:00,
2013-06-06 03:02:00,60.0,54.2,29.07,East,90,0.0,2.0,81,0.00,,---,0.00,0.00,VWS V14.01,2013-06-06 07:02:00,
2013-06-06 03:07:00,60.0,53.8,29.06,NNE,22,0.0,0.0,80,0.00,,---,0.00,0.00,VWS V14.01,2013-06-06 07:07:00,
2013-06-06 03:12:00,60.0,53.8,29.06,NE,45,0.0,0.0,80,0.00,,---,0.00,0.00,VWS V14.01,2013-06-06 07:12:00,
2013-06-06 03:17:00,60.0,53.8,29.06,NW,315,0.0,2.0,80,0.00,,---,0.00,0.00,VWS V14.01,2013-06-06 07:17:00,
2013-06-06 03:22:00,60.0,54.2,29.06,NW,315,0.0,0.0,81,0.00,,---,0.00,0.00,VWS V14.01,2013-06-06 07:22:00,
2013-06-06 03:27:00,60.0,54.5,29.06,North,360,0.0,0.0,82,0.00,,---,0.00,0.00,VWS V14.01,2013-06-06 07:27:00,
2013-06-06 03:32:00,60.0,54.5,29.06,North,360,0.0,0.0,82,0.00,,---,0.00,0.00,VWS V14.01,2013-06-06 07:32:00,
2013-06-06 03:37:00,60.0,54.8,29.06,North,360,0.0,0.0,83,0.00,,---,0.00,0.00,VWS V14.01,2013-06-06 07:37:00,
2013-06-06 03:42:00,60.0,54.5,29.06,ENE,67,0.0,0.0,82,0.00,,---,0.00,0.00,VWS V14.01,2013-06-06 07:42:00,
2013-06-06 03:47:00,60.0,54.8,29.06,NE,45,0.0,0.0,83,0.00,,---,0.00,0.00,VWS V14.01,2013-06-06 07:47:00,
2013-06-06 03:52:00,60.0,55.2,29.06,ENE,67,0.0,0.0,84,0.00,,---,0.00,0.00,VWS V14.01,2013-06-06 07:52:00,
2013-06-06 03:57:00,60.0,54.8,29.05,NE,45,0.0,0.0,83,0.00,,---,0.00,0.00,VWS V14.01,2013-06-06 07:57:00,
2013-06-06 04:02:00,60.0,54.8,29.05,NNW,337,0.0,0.0,83,0.00,,---,0.00,0.00,VWS V14.01,2013-06-06 08:02:00,
2013-06-06 04:07:00,60.0,55.2,29.05,North,360,0.0,0.0,84,0.00,,---,0.00,0.00,VWS V14.01,2013-06-06 08:07:00,
2013-06-06 04:12:00,60.0,54.8,29.05,North,360,0.0,0.0,83,0.00,,---,0.00,0.00,VWS V14.01,2013-06-06 08:12:00,
2013-06-06 04:17:00,59.0,54.2,29.05,WNW,292,0.0,0.0,84,0.00,,---,0.00,0.00,VWS V14.01,2013-06-06 08:17:00,
2013-06-06 04:22:00,59.0,54.2,29.06,North,360,0.0,0.0,84,0.00,,---,0.00,0.00,VWS V14.01,2013-06-06 08:22:00,
2013-06-06 04:27:00,59.0,54.2,29.06,North,360,0.0,0.0,84,0.00,,---,0.00,0.00,VWS V14.01,2013-06-06 08:27:00,
2013-06-06 04:32:00,59.0,54.2,29.05,North,360,0.0,0.0,84,0.00,,---,0.00,0.00,VWS V14.01,2013-06-06 08:32:00,
2013-06-06 04:37:00,59.0,54.2,29.05,North,360,0.0,0.0,84,0.00,,---,0.00,0.00,VWS V14.01,2013-06-06 08:37:00,
2013-06-06 04:42:00,59.0,54.2,29.05,North,360,0.0,0.0,84,0.00,,---,0.00,0.00,VWS V14.01,2013-06-06 08:42:00,
2013-06-06 04:47:00,59.0,54.2,29.05,North,360,0.0,0.0,84,0.00,,---,0.00,0.00,VWS V14.01,2013-06-06 08:47:00,
2013-06-06 04:52:00,59.0,54.2,29.05,East,90,0.0,0.0,84,0.00,,---,0.00,0.00,VWS V14.01,2013-06-06 08:52:00,
2013-06-06 04:57:00,59.0,54.2,29.05,NNE,22,0.0,0.0,84,0.00,,---,0.00,0.00,VWS V14.01,2013-06-06 08:57:00,
2013-06-06 05:02:00,59.0,54.2,29.05,ENE,67,0.0,0.0,84,0.00,,---,0.00,0.00,VWS V14.01,2013-06-06 09:02:00,
2013-06-06 05:08:00,59.0,54.2,29.05,ENE,67,0.0,0.0,84,0.00,,---,0.00,0.00,VWS V14.01,2013-06-06 09:08:00,
2013-06-06 05:13:00,59.0,54.2,29.05,NE,45,0.0,0.0,84,0.00,,---,0.00,0.00,VWS V14.01,2013-06-06 09:13:00,
2013-06-06 05:18:00,59.0,54.2,29.05,NE,45,0.0,0.0,84,0.00,,---,0.00,0.00,VWS V14.01,2013-06-06 09:18:00,
2013-06-06 05:23:00,59.0,54.5,29.05,ENE,67,0.0,0.0,85,0.00,,---,0.00,0.00,VWS V14.01,2013-06-06 09:23:00,
2013-06-06 05:28:00,59.0,54.5,29.05,North,360,0.0,2.0,85,0.00,,---,0.00,0.00,VWS V14.01,2013-06-06 09:28:00,
2013-06-06 05:33:00,59.0,54.5,29.05,North,360,0.0,0.0,85,0.00,,---,0.00,0.00,VWS V14.01,2013-06-06 09:33:00,
2013-06-06 05:38:00,59.0,54.2,29.05,ENE,67,0.0,0.0,84,0.00,,---,0.00,0.00,VWS V14.01,2013-06-06 09:38:00,
2013-06-06 05:43:00,59.0,54.2,29.05,ENE,67,0.0,0.0,84,0.00,,---,0.00,0.00,VWS V14.01,2013-06-06 09:43:00,
2013-06-06 05:48:00,59.0,54.2,29.05,NNE,22,0.0,0.0,84,0.00,,---,0.00,0.00,VWS V14.01,2013-06-06 09:48:00,
2013-06-06 05:53:00,59.0,54.2,29.05,SE,135,0.0,0.0,84,0.00,,---,0.00,0.00,VWS V14.01,2013-06-06 09:53:00,
2013-06-06 05:58:00,59.0,54.2,29.05,North,360,0.0,0.0,84,0.00,,---,0.00,0.00,VWS V14.01,2013-06-06 09:58:00,
2013-06-06 06:03:00,59.0,54.2,29.05,ESE,112,0.0,0.0,84,0.00,,---,0.00,0.00,VWS V14.01,2013-06-06 10:03:00,
2013-06-06 06:08:00,59.0,54.2,29.05,NNE,22,0.0,0.0,84,0.00,,---,0.00,0.00,VWS V14.01,2013-06-06 10:08:00,
2013-06-06 06:13:00,59.0,54.2,29.05,NNE,22,0.0,0.0,84,0.00,,---,0.00,0.00,VWS V14.01,2013-06-06 10:13:00,
2013-06-06 06:18:00,59.0,54.2,29.05,ENE,67,0.0,0.0,84,0.00,,---,0.00,0.00,VWS V14.01,2013-06-06 10:18:00,
2013-06-06 06:23:00,59.0,54.2,29.05,ESE,112,0.0,0.0,84,0.00,,---,0.00,0.00,VWS V14.01,2013-06-06 10:23:00,
2013-06-06 06:28:00,59.0,54.2,29.05,NE,45,0.0,3.0,84,0.00,,---,0.00,0.00,VWS V14.01,2013-06-06 10:28:00,
2013-06-06 06:33:00,59.0,54.2,29.04,ENE,67,0.0,0.0,84,0.00,,---,0.00,0.00,VWS V14.01,2013-06-06 10:33:00,
2013-06-06 06:38:00,59.0,54.5,29.04,North,360,0.0,0.0,85,0.00,,---,0.00,0.00,VWS V14.01,2013-06-06 10:38:00,
2013-06-06 06:43:00,59.0,54.5,29.04,East,90,0.0,0.0,85,0.00,,---,0.00,0.00,VWS V14.01,2013-06-06 10:43:00,
2013-06-06 06:48:00,59.0,54.5,29.04,NNE,22,0.0,0.0,85,0.00,,---,0.00,0.00,VWS V14.01,2013-06-06 10:48:00,
2013-06-06 06:53:00,59.0,54.8,29.05,ESE,112,0.0,0.0,86,0.00,,---,0.00,0.00,VWS V14.01,2013-06-06 10:53:00,
2013-06-06 06:58:00,59.0,54.5,29.05,NNW,337,0.0,0.0,85,0.00,,---,0.00,0.00,VWS V14.01,2013-06-06 10:58:00,
2013-06-06 07:03:00,59.0,54.5,29.04,NNE,22,1.0,1.0,85,0.00,,---,0.00,0.00,VWS V14.01,2013-06-06 11:03:00,
2013-06-06 07:08:00,59.0,54.8,29.04,East,90,0.0,0.0,86,0.00,,---,0.00,0.00,VWS V14.01,2013-06-06 11:08:00,
2013-06-06 07:13:00,59.0,54.8,29.04,NW,315,0.0,2.0,86,0.00,,---,0.00,0.00,VWS V14.01,2013-06-06 11:13:00,
2013-06-06 07:18:00,59.0,54.8,29.04,North,360,0.0,0.0,86,0.00,,---,0.00,0.00,VWS V14.01,2013-06-06 11:18:00,
2013-06-06 07:23:00,59.0,54.8,29.03,ESE,112,0.0,2.0,86,0.00,,---,0.00,0.00,VWS V14.01,2013-06-06 11:23:00,
2013-06-06 07:28:00,59.0,54.8,29.03,East,90,0.0,0.0,86,0.00,,---,0.00,0.00,VWS V14.01,2013-06-06 11:28:00,
2013-06-06 07:33:00,59.0,54.8,29.03,North,360,0.0,0.0,86,0.00,,---,0.00,0.00,VWS V14.01,2013-06-06 11:33:00,
2013-06-06 07:38:00,59.0,55.1,29.03,East,90,0.0,2.0,87,0.00,,---,0.00,0.00,VWS V14.01,2013-06-06 11:38:00,
2013-06-06 07:43:00,59.0,55.1,29.03,ENE,67,0.0,2.0,87,0.00,,---,0.00,0.00,VWS V14.01,2013-06-06 11:43:00,
2013-06-06 07:48:00,59.0,55.1,29.03,NE,45,0.0,0.0,87,0.00,,---,0.00,0.00,VWS V14.01,2013-06-06 11:48:00,
2013-06-06 07:53:00,59.0,55.1,29.03,East,90,1.0,1.0,87,0.00,,---,0.00,0.00,VWS V14.01,2013-06-06 11:53:00,
2013-06-06 07:58:00,59.0,55.1,29.03,WNW,292,0.0,0.0,87,0.00,,---,0.00,0.00,VWS V14.01,2013-06-06 11:58:00,
2013-06-06 08:03:00,59.0,55.5,29.03,NE,45,0.0,0.0,88,0.00,,---,0.00,0.00,VWS V14.01,2013-06-06 12:03:00,
2013-06-06 08:08:00,59.0,55.5,29.03,ESE,112,0.0,0.0,88,0.00,,---,0.00,0.00,VWS V14.01,2013-06-06 12:08:00,
2013-06-06 08:13:00,59.0,55.5,29.03,ESE,112,0.0,3.0,88,0.00,,---,0.00,0.00,VWS V14.01,2013-06-06 12:13:00,
2013-06-06 08:18:00,59.0,55.5,29.03,East,90,3.0,3.0,88,0.00,,---,0.00,0.00,VWS V14.01,2013-06-06 12:18:00,
2013-06-06 08:23:00,59.0,55.8,29.03,ESE,112,1.0,3.0,89,0.00,,---,0.00,0.00,VWS V14.01,2013-06-06 12:23:00,
2013-06-06 08:28:00,59.0,55.8,29.03,NNE,22,0.0,1.0,89,0.00,,---,0.00,0.00,VWS V14.01,2013-06-06 12:28:00,
2013-06-06 08:33:00,59.0,55.8,29.04,NE,45,0.0,0.0,89,0.00,,---,0.00,0.00,VWS V14.01,2013-06-06 12:33:00,
2013-06-06 08:38:00,59.0,55.8,29.04,ESE,112,0.0,0.0,89,0.00,,---,0.00,0.00,VWS V14.01,2013-06-06 12:38:00,
2013-06-06 08:43:00,59.0,55.8,29.04,NE,45,1.0,2.0,89,0.00,,---,0.00,0.00,VWS V14.01,2013-06-06 12:43:00,
2013-06-06 08:48:00,59.0,55.8,29.04,East,90,0.0,2.0,89,0.00,,---,0.00,0.00,VWS V14.01,2013-06-06 12:48:00,
2013-06-06 08:53:00,59.0,56.1,29.04,East,90,0.0,2.0,90,0.00,,---,0.00,0.00,VWS V14.01,2013-06-06 12:53:00,
2013-06-06 08:58:00,59.0,56.1,29.04,North,360,0.0,1.0,90,0.00,,---,0.00,0.00,VWS V14.01,2013-06-06 12:58:00,
2013-06-06 09:03:00,59.0,56.1,29.04,ESE,112,0.0,2.0,90,0.00,,---,0.00,0.00,VWS V14.01,2013-06-06 13:03:00,
2013-06-06 09:08:00,59.0,56.1,29.04,ESE,112,0.0,2.0,90,0.00,,---,0.00,0.00,VWS V14.01,2013-06-06 13:08:00,
2013-06-06 09:13:00,59.0,56.1,29.05,NNE,22,0.0,0.0,90,0.00,,---,0.00,0.00,VWS V14.01,2013-06-06 13:13:00,
2013-06-06 09:18:00,59.0,56.4,29.05,ENE,67,0.0,0.0,91,0.00,,---,0.00,0.00,VWS V14.01,2013-06-06 13:18:00,
2013-06-06 09:23:00,59.0,56.4,29.05,WNW,292,1.0,3.0,91,0.00,,---,0.00,0.00,VWS V14.01,2013-06-06 13:23:00,
2013-06-06 09:28:00,59.0,56.4,29.05,ENE,67,0.0,0.0,91,0.00,,---,0.00,0.00,VWS V14.01,2013-06-06 13:28:00,
2013-06-06 09:33:00,59.0,56.7,29.05,NE,45,0.0,0.0,92,0.00,,---,0.00,0.00,VWS V14.01,2013-06-06 13:33:00,
2013-06-06 09:38:00,59.0,56.7,29.05,NNW,337,0.0,0.0,92,0.00,,---,0.00,0.00,VWS V14.01,2013-06-06 13:38:00,
2013-06-06 09:43:00,60.0,57.7,29.05,South,180,0.0,0.0,92,0.00,,---,0.00,0.00,VWS V14.01,2013-06-06 13:43:00,
2013-06-06 09:48:00,60.0,57.7,29.05,ENE,67,0.0,0.0,92,0.00,,---,0.00,0.00,VWS V14.01,2013-06-06 13:48:00,
2013-06-06 09:53:00,60.0,57.7,29.05,North,360,0.0,0.0,92,0.00,,---,0.00,0.00,VWS V14.01,2013-06-06 13:53:00,
2013-06-06 09:58:00,60.0,57.4,29.05,West,270,0.0,0.0,91,0.00,,---,0.00,0.00,VWS V14.01,2013-06-06 13:58:00,
2013-06-06 10:03:00,60.0,57.7,29.05,NNW,337,0.0,0.0,92,0.00,,---,0.00,0.00,VWS V14.01,2013-06-06 14:03:00,
2013-06-06 10:08:00,60.0,57.7,29.05,ENE,67,0.0,2.0,92,0.00,,---,0.00,0.00,VWS V14.01,2013-06-06 14:08:00,
2013-06-06 10:13:00,60.0,57.4,29.06,NW,315,0.0,0.0,91,0.00,,---,0.00,0.00,VWS V14.01,2013-06-06 14:13:00,
2013-06-06 10:18:00,60.0,57.4,29.06,ENE,67,0.0,0.0,91,0.00,,---,0.00,0.00,VWS V14.01,2013-06-06 14:18:00,
2013-06-06 10:23:00,60.0,57.4,29.05,ESE,112,0.0,0.0,91,0.00,,---,0.00,0.00,VWS V14.01,2013-06-06 14:23:00,
2013-06-06 10:28:00,60.0,57.1,29.05,ENE,67,2.0,2.0,90,0.00,,---,0.00,0.00,VWS V14.01,2013-06-06 14:28:00,
2013-06-06 10:33:00,61.0,58.0,29.05,East,90,0.0,0.0,90,0.00,,---,0.00,0.00,VWS V14.01,2013-06-06 14:33:00,
2013-06-06 10:38:00,61.0,57.7,29.05,East,90,0.0,0.0,89,0.00,,---,0.00,0.00,VWS V14.01,2013-06-06 14:38:00,
2013-06-06 10:43:00,62.0,59.0,29.03,ESE,112,0.0,0.0,90,0.00,,---,0.00,0.00,VWS V14.01,2013-06-06 14:43:00,
2013-06-06 10:48:00,62.0,59.0,29.03,SE,135,0.0,2.0,90,0.00,,---,0.00,0.00,VWS V14.01,2013-06-06 14:48:00,
2013-06-06 10:53:00,62.0,59.0,29.03,SSE,157,1.0,1.0,90,0.00,,---,0.00,0.00,VWS V14.01,2013-06-06 14:53:00,
2013-06-06 10:58:00,62.0,58.4,29.03,SE,135,0.0,3.0,88,0.00,,---,0.00,0.00,VWS V14.01,2013-06-06 14:58:00,
2013-06-06 11:03:00,62.0,58.1,29.01,ESE,112,0.0,0.0,87,0.00,,---,0.00,0.00,VWS V14.01,2013-06-06 15:03:00,
2013-06-06 11:08:00,63.0,58.8,29.01,ESE,112,0.0,4.0,86,0.00,,---,0.00,0.00,VWS V14.01,2013-06-06 15:08:00,
2013-06-06 11:13:00,63.0,58.1,28.96,ENE,67,2.0,3.0,84,0.00,,---,0.00,0.00,VWS V14.01,2013-06-06 15:13:00,
2013-06-06 11:18:00,64.0,59.4,28.96,ENE,67,0.0,5.0,85,0.00,,---,0.00,0.00,VWS V14.01,2013-06-06 15:18:00,
2013-06-06 11:23:00,65.0,59.7,28.84,North,360,0.0,1.0,83,0.00,,---,0.00,0.00,VWS V14.01,2013-06-06 15:23:00,
2013-06-06 11:28:00,65.0,58.3,28.84,East,90,2.0,3.0,79,0.00,,---,0.00,0.00,VWS V14.01,2013-06-06 15:28:00,
2013-06-06 11:33:00,66.0,59.7,28.92,NW,315,0.0,3.0,80,0.00,,---,0.00,0.00,VWS V14.01,2013-06-06 15:33:00,
2013-06-06 11:38:00,66.0,58.6,28.92,WNW,292,2.0,4.0,77,0.00,,---,0.00,0.00,VWS V14.01,2013-06-06 15:38:00,
2013-06-06 11:43:00,66.0,59.3,28.92,East,90,0.0,4.0,79,0.00,,---,0.00,0.00,VWS V14.01,2013-06-06 15:43:00,
2013-06-06 11:48:00,67.0,60.3,28.92,ESE,112,0.0,0.0,79,0.00,,---,0.00,0.00,VWS V14.01,2013-06-06 15:48:00,
2013-06-06 11:53:00,67.0,60.3,28.94,East,90,3.0,3.0,79,0.00,,---,0.00,0.00,VWS V14.01,2013-06-06 15:53:00,
2013-06-06 11:58:00,65.0,59.0,28.94,ESE,112,0.0,3.0,81,0.00,,---,0.00,0.00,VWS V14.01,2013-06-06 15:58:00,
2013-06-06 12:03:00,65.0,59.4,28.98,SSE,157,0.0,3.0,82,0.00,,---,0.00,0.00,VWS V14.01,2013-06-06 16:03:00,
2013-06-06 12:08:00,65.0,59.4,28.98,NNW,337,1.0,3.0,82,0.00,,---,0.00,0.00,VWS V14.01,2013-06-06 16:08:00,
2013-06-06 12:13:00,66.0,60.7,28.94,SE,135,0.0,0.0,83,0.00,,---,0.00,0.00,VWS V14.01,2013-06-06 16:13:00,
2013-06-06 12:18:00,66.0,59.7,28.94,South,180,0.0,3.0,80,0.00,,---,0.00,0.00,VWS V14.01,2013-06-06 16:18:00,
2013-06-06 12:23:00,67.0,60.6,28.93,North,360,0.0,0.0,80,0.00,,---,0.00,0.00,VWS V14.01,2013-06-06 16:23:00,
2013-06-06 12:28:00,67.0,60.6,28.93,SE,135,0.0,0.0,80,0.00,,---,0.00,0.00,VWS V14.01,2013-06-06 16:28:00,
2013-06-06 12:33:00,67.0,61.0,28.93,ESE,112,3.0,3.0,81,0.00,,---,0.00,0.00,VWS V14.01,2013-06-06 16:33:00,
2013-06-06 12:38:00,67.0,60.3,28.93,NNW,337,0.0,3.0,79,0.00,,---,0.00,0.00,VWS V14.01,2013-06-06 16:38:00,
2013-06-06 12:43:00,67.0,60.3,28.87,SE,135,2.0,3.0,79,0.00,,---,0.00,0.00,VWS V14.01,2013-06-06 16:43:00,
2013-06-06 12:48:00,67.0,60.6,28.87,NW,315,0.0,0.0,80,0.00,,---,0.00,0.00,VWS V14.01,2013-06-06 16:48:00,
2013-06-06 12:54:00,68.0,61.6,28.99,WSW,247,0.0,1.0,80,0.00,,---,0.00,0.00,VWS V14.01,2013-06-06 16:54:00,
2013-06-06 12:59:00,67.0,60.3,28.99,ESE,112,3.0,3.0,79,0.00,,---,0.00,0.00,VWS V14.01,2013-06-06 16:59:00,
2013-06-06 13:04:00,67.0,61.3,29.00,SE,135,1.0,2.0,82,0.00,,---,0.00,0.00,VWS V14.01,2013-06-06 17:04:00,
2013-06-06 13:09:00,66.0,60.0,29.00,ENE,67,0.0,3.0,81,0.00,,---,0.00,0.00,VWS V14.01,2013-06-06 17:09:00,
2013-06-06 13:14:00,67.0,61.0,28.99,ESE,112,0.0,0.0,81,0.00,,---,0.00,0.00,VWS V14.01,2013-06-06 17:14:00,
2013-06-06 13:19:00,67.0,61.3,28.99,ESE,112,0.0,0.0,82,0.00,,---,0.00,0.00,VWS V14.01,2013-06-06 17:19:00,
2013-06-06 13:24:00,67.0,62.3,28.95,East,90,1.0,3.0,85,0.00,,---,0.00,0.00,VWS V14.01,2013-06-06 17:24:00,
2013-06-06 13:29:00,67.0,60.6,28.95,East,90,3.0,4.0,80,0.00,,---,0.00,0.00,VWS V14.01,2013-06-06 17:29:00,
2013-06-06 13:34:00,68.0,62.0,28.96,ESE,112,4.0,5.0,81,0.00,,---,0.00,0.00,VWS V14.01,2013-06-06 17:34:00,
2013-06-06 13:39:00,67.0,61.3,28.96,NNE,22,0.0,3.0,82,0.00,,---,0.00,0.00,VWS V14.01,2013-06-06 17:39:00,
2013-06-06 13:44:00,68.0,63.7,28.90,ESE,112,2.0,3.0,86,0.00,,---,0.00,0.00,VWS V14.01,2013-06-06 17:44:00,
2013-06-06 13:49:00,67.0,60.6,28.90,SE,135,1.0,4.0,80,0.00,,---,0.00,0.00,VWS V14.01,2013-06-06 17:49:00,
2013-06-06 13:55:00,68.0,61.2,28.86,ESE,112,3.0,5.0,79,0.00,,---,0.00,0.00,VWS V14.01,2013-06-06 17:55:00,
2013-06-06 14:00:00,69.0,62.6,28.86,SE,135,3.0,4.0,80,0.00,,---,0.00,0.00,VWS V14.01,2013-06-06 18:00:00,
2013-06-06 14:05:00,70.0,63.5,28.88,SE,135,0.0,3.0,80,0.00,,---,0.00,0.00,VWS V14.01,2013-06-06 18:05:00,
2013-06-06 14:10:00,71.0,62.7,28.88,ESE,112,0.0,3.0,75,0.00,,---,0.00,0.00,VWS V14.01,2013-06-06 18:10:00,
2013-06-06 14:15:00,71.0,61.9,28.89,East,90,0.0,3.0,73,0.00,,---,0.00,0.00,VWS V14.01,2013-06-06 18:15:00,
2013-06-06 14:20:00,73.0,64.6,28.89,NNW,337,0.0,3.0,75,0.00,,---,0.00,0.00,VWS V14.01,2013-06-06 18:20:00,
2013-06-06 14:25:00,72.0,62.9,28.93,South,180,1.0,3.0,73,0.00,,---,0.00,0.00,VWS V14.01,2013-06-06 18:25:00,
2013-06-06 14:30:00,72.0,63.7,28.93,SE,135,1.0,3.0,75,0.00,,---,0.00,0.00,VWS V14.01,2013-06-06 18:30:00,
2013-06-06 14:35:00,72.0,63.3,28.90,ESE,112,0.0,3.0,74,0.00,,---,0.00,0.00,VWS V14.01,2013-06-06 18:35:00,
2013-06-06 14:37:00,74.0,65.6,28.95,SSW,202,0.0,0.0,75,0.00,,---,0.00,0.00,VWS V14.01,2013-06-06 18:37:00,
2013-06-06 14:38:00,74.0,63.6,28.95,NW,315,2.0,2.0,70,0.00,,---,0.00,0.00,VWS V14.01,2013-06-06 18:38:00,
2013-06-06 14:39:00,74.0,63.6,28.95,NNW,337,0.0,3.0,70,0.00,,---,0.00,0.00,VWS V14.01,2013-06-06 18:39:00,
2013-06-06 14:40:00,73.0,63.0,28.90,NW,315,4.0,4.0,71,0.00,,---,0.00,0.00,VWS V14.01,2013-06-06 18:40:00,
2013-06-06 14:41:00,74.0,62.8,28.95,NNE,22,0.0,3.0,68,0.00,,---,0.00,0.00,VWS V14.01,2013-06-06 18:41:00,
2013-06-06 14:42:00,74.0,62.8,28.95,East,90,0.0,0.0,68,0.00,,---,0.00,0.00,VWS V14.01,2013-06-06 18:42:00,
2013-06-06 14:44:00,74.0,63.6,28.94,NE,45,0.0,0.0,70,0.00,,---,0.00,0.00,VWS V14.01,2013-06-06 18:44:00,
2013-06-06 14:45:00,73.0,63.0,28.91,SSE,157,2.0,3.0,71,0.00,,---,0.00,0.00,VWS V14.01,2013-06-06 18:45:00,
2013-06-06 14:46:00,75.0,63.3,28.94,NW,315,0.0,3.0,67,0.00,,---,0.00,0.00,VWS V14.01,2013-06-06 18:46:00,
2013-06-06 14:47:00,75.0,63.7,28.94,NW,315,0.0,0.0,68,0.00,,---,0.00,0.00,VWS V14.01,2013-06-06 18:47:00,
2013-06-06 14:48:00,75.0,63.3,28.94,WNW,292,0.0,0.0,67,0.00,,---,0.00,0.00,VWS V14.01,2013-06-06 18:48:00,
2013-06-06 14:50:00,73.0,63.0,28.91,SSW,202,0.0,0.0,71,0.00,,---,0.00,0.00,VWS V14.01,2013-06-06 18:50:00,
2013-06-06 14:52:00,75.0,62.9,28.94,East,90,0.0,0.0,66,0.00,,---,0.00,0.00,VWS V14.01,2013-06-06 18:52:00,
2013-06-06 14:53:00,75.0,63.7,28.95,ESE,112,0.0,0.0,68,0.00,,---,0.00,0.00,VWS V14.01,2013-06-06 18:53:00,
2013-06-06 14:55:00,74.0,63.2,28.92,NW,315,0.0,3.0,69,0.00,,---,0.00,0.00,VWS V14.01,2013-06-06 18:55:00,
2013-06-06 15:00:00,74.0,63.6,28.92,ESE,112,0.0,4.0,70,0.00,,---,0.00,0.00,VWS V14.01,2013-06-06 19:00:00,
2013-06-06 15:05:00,73.0,63.0,28.94,WNW,292,3.0,5.0,71,0.00,,---,0.00,0.00,VWS V14.01,2013-06-06 19:05:00,
2013-06-06 15:10:00,74.0,63.6,28.94,SSE,157,0.0,0.0,70,0.00,,---,0.00,0.00,VWS V14.01,2013-06-06 19:10:00,
2013-06-06 15:15:00,73.0,62.2,28.94,South,180,0.0,3.0,69,0.00,,---,0.00,0.00,VWS V14.01,2013-06-06 19:15:00,
2013-06-06 15:20:00,73.0,63.0,28.94,WSW,247,0.0,0.0,71,0.00,,---,0.00,0.00,VWS V14.01,2013-06-06 19:20:00,
2013-06-06 15:25:00,73.0,65.4,28.95,ESE,112,2.0,3.0,77,0.00,,---,0.00,0.00,VWS V14.01,2013-06-06 19:25:00,
2013-06-06 15:30:00,72.0,63.3,28.95,South,180,0.0,2.0,74,0.00,,---,0.00,0.00,VWS V14.01,2013-06-06 19:30:00,
2013-06-06 15:35:00,73.0,63.0,28.95,ESE,112,0.0,3.0,71,0.00,,---,0.00,0.00,VWS V14.01,2013-06-06 19:35:00,
2013-06-06 15:40:00,74.0,63.2,28.95,ENE,67,0.0,3.0,69,0.00,,---,0.00,0.00,VWS V14.01,2013-06-06 19:40:00,
2013-06-06 15:45:00,75.0,63.3,28.94,NW,315,0.0,0.0,67,0.00,,---,0.00,0.00,VWS V14.01,2013-06-06 19:45:00,
2013-06-06 15:50:00,75.0,62.9,28.94,ESE,112,3.0,4.0,66,0.00,,---,0.00,0.00,VWS V14.01,2013-06-06 19:50:00,
2013-06-06 15:55:00,75.0,64.2,28.95,NW,315,0.0,2.0,69,0.00,,---,0.00,0.00,VWS V14.01,2013-06-06 19:55:00,
2013-06-06 16:00:00,76.0,65.1,28.95,SE,135,0.0,0.0,69,0.00,,---,0.00,0.00,VWS V14.01,2013-06-06 20:00:00,
2013-06-06 16:05:00,74.0,62.8,28.95,East,90,4.0,4.0,68,0.00,,---,0.00,0.00,VWS V14.01,2013-06-06 20:05:00,
2013-06-06 16:10:00,75.0,63.3,28.95,WNW,292,5.0,5.0,67,0.00,,---,0.00,0.00,VWS V14.01,2013-06-06 20:10:00,
2013-06-06 16:15:00,76.0,65.9,28.95,ENE,67,0.0,0.0,71,0.00,,---,0.00,0.00,VWS V14.01,2013-06-06 20:15:00,
2013-06-06 16:20:00,76.0,65.9,28.95,ESE,112,0.0,0.0,71,0.00,,---,0.00,0.00,VWS V14.01,2013-06-06 20:20:00,
2013-06-06 16:25:00,76.0,64.3,28.96,NW,315,0.0,0.0,67,0.00,,---,0.00,0.00,VWS V14.01,2013-06-06 20:25:00,
2013-06-06 16:30:00,75.0,62.9,28.96,ESE,112,3.0,3.0,66,0.00,,---,0.00,0.00,VWS V14.01,2013-06-06 20:30:00,
2013-06-06 16:35:00,76.0,65.1,28.96,South,180,0.0,0.0,69,0.00,,---,0.00,0.00,VWS V14.01,2013-06-06 20:35:00,
2013-06-06 16:40:00,75.0,63.3,28.96,SE,135,0.0,2.0,67,0.00,,---,0.00,0.00,VWS V14.01,2013-06-06 20:40:00,
2013-06-06 16:45:00,74.0,62.8,28.97,SE,135,2.0,3.0,68,0.00,,---,0.00,0.00,VWS V14.01,2013-06-06 20:45:00,
2013-06-06 16:50:00,74.0,62.8,28.97,East,90,3.0,3.0,68,0.00,,---,0.00,0.00,VWS V14.01,2013-06-06 20:50:00,
2013-06-06 16:55:00,75.0,64.6,28.98,NW,315,0.0,0.0,70,0.00,,---,0.00,0.00,VWS V14.01,2013-06-06 20:55:00,
2013-06-06 17:01:00,76.0,65.5,28.98,WSW,247,0.0,0.0,70,0.00,,---,0.00,0.00,VWS V14.01,2013-06-06 21:01:00,
2013-06-06 17:06:00,75.0,63.7,28.97,East,90,2.0,3.0,68,0.00,,---,0.00,0.00,VWS V14.01,2013-06-06 21:06:00,
2013-06-06 17:11:00,75.0,64.2,28.97,WNW,292,0.0,0.0,69,0.00,,---,0.00,0.00,VWS V14.01,2013-06-06 21:11:00,
2013-06-06 17:16:00,76.0,65.5,28.97,East,90,0.0,5.0,70,0.00,,---,0.00,0.00,VWS V14.01,2013-06-06 21:16:00,
2013-06-06 17:21:00,75.0,65.0,28.97,SE,135,0.0,0.0,71,0.00,,---,0.00,0.00,VWS V14.01,2013-06-06 21:21:00,
2013-06-06 17:26:00,76.0,65.1,28.98,SSW,202,0.0,0.0,69,0.00,,---,0.00,0.00,VWS V14.01,2013-06-06 21:26:00,
2013-06-06 17:31:00,76.0,65.1,28.98,NW,315,3.0,3.0,69,0.00,,---,0.00,0.00,VWS V14.01,2013-06-06 21:31:00,
2013-06-06 17:36:00,76.0,64.7,28.98,SE,135,0.0,0.0,68,0.00,,---,0.00,0.00,VWS V14.01,2013-06-06 21:36:00,
2013-06-06 17:41:00,76.0,65.5,28.98,East,90,2.0,4.0,70,0.00,,---,0.00,0.00,VWS V14.01,2013-06-06 21:41:00,
2013-06-06 17:46:00,75.0,63.7,28.99,ESE,112,0.0,3.0,68,0.00,,---,0.00,0.00,VWS V14.01,2013-06-06 21:46:00,
2013-06-06 17:51:00,75.0,63.3,28.99,SE,135,0.0,0.0,67,0.00,,---,0.00,0.00,VWS V14.01,2013-06-06 21:51:00,
2013-06-06 17:56:00,76.0,65.1,28.98,West,270,0.0,0.0,69,0.00,,---,0.00,0.00,VWS V14.01,2013-06-06 21:56:00,
2013-06-06 18:01:00,76.0,65.1,28.98,SE,135,0.0,2.0,69,0.00,,---,0.00,0.00,VWS V14.01,2013-06-06 22:01:00,
2013-06-06 18:06:00,76.0,64.7,28.98,ESE,112,0.0,0.0,68,0.00,,---,0.00,0.00,VWS V14.01,2013-06-06 22:06:00,
2013-06-06 18:11:00,76.0,65.1,28.98,North,360,0.0,0.0,69,0.00,,---,0.00,0.00,VWS V14.01,2013-06-06 22:11:00,
2013-06-06 18:16:00,76.0,64.3,28.99,NNW,337,0.0,0.0,67,0.00,,---,0.00,0.00,VWS V14.01,2013-06-06 22:16:00,
2013-06-06 18:21:00,76.0,64.7,28.99,NNW,337,0.0,0.0,68,0.00,,---,0.00,0.00,VWS V14.01,2013-06-06 22:21:00,
2013-06-06 18:26:00,75.0,63.7,28.99,ESE,112,0.0,0.0,68,0.00,,---,0.00,0.00,VWS V14.01,2013-06-06 22:26:00,
2013-06-06 18:31:00,75.0,62.9,28.99,NE,45,0.0,0.0,66,0.00,,---,0.00,0.00,VWS V14.01,2013-06-06 22:31:00,
2013-06-06 18:36:00,74.0,62.8,28.99,East,90,0.0,3.0,68,0.00,,---,0.00,0.00,VWS V14.01,2013-06-06 22:36:00,
2013-06-06 18:41:00,75.0,64.6,28.99,NNE,22,0.0,0.0,70,0.00,,---,0.00,0.00,VWS V14.01,2013-06-06 22:41:00,
2013-06-06 18:46:00,74.0,63.6,28.99,WNW,292,0.0,3.0,70,0.00,,---,0.00,0.00,VWS V14.01,2013-06-06 22:46:00,
2013-06-06 18:51:00,75.0,64.6,28.99,WNW,292,0.0,0.0,70,0.00,,---,0.00,0.00,VWS V14.01,2013-06-06 22:51:00,
2013-06-06 18:56:00,75.0,65.0,28.99,WNW,292,0.0,0.0,71,0.00,,---,0.00,0.00,VWS V14.01,2013-06-06 22:56:00,
2013-06-06 19:01:00,74.0,64.0,28.99,ESE,112,0.0,0.0,71,0.00,,---,0.00,0.00,VWS V14.01,2013-06-06 23:01:00,
2013-06-06 19:06:00,74.0,63.6,28.99,ESE,112,1.0,2.0,70,0.00,,---,0.00,0.00,VWS V14.01,2013-06-06 23:06:00,
2013-06-06 19:11:00,73.0,63.8,28.99,ESE,112,0.0,0.0,73,0.00,,---,0.00,0.00,VWS V14.01,2013-06-06 23:11:00,
2013-06-06 19:16:00,72.0,63.7,29.00,ESE,112,0.0,0.0,75,0.00,,---,0.00,0.00,VWS V14.01,2013-06-06 23:16:00,
2013-06-06 19:21:00,72.0,63.7,29.00,NW,315,0.0,1.0,75,0.00,,---,0.00,0.00,VWS V14.01,2013-06-06 23:21:00,
2013-06-06 19:26:00,72.0,63.7,29.00,East,90,0.0,0.0,75,0.00,,---,0.00,0.00,VWS V14.01,2013-06-06 23:26:00,
2013-06-06 19:31:00,72.0,64.0,29.00,NW,315,0.0,0.0,76,0.00,,---,0.00,0.00,VWS V14.01,2013-06-06 23:31:00,
2013-06-06 19:36:00,72.0,64.4,29.01,ESE,112,1.0,2.0,77,0.00,,---,0.00,0.00,VWS V14.01,2013-06-06 23:36:00,
2013-06-06 19:41:00,72.0,64.8,29.01,NW,315,0.0,0.0,78,0.00,,---,0.00,0.00,VWS V14.01,2013-06-06 23:41:00,
2013-06-06 19:46:00,71.0,63.8,29.01,East,90,0.0,0.0,78,0.00,,---,0.00,0.00,VWS V14.01,2013-06-06 23:46:00,
2013-06-06 19:51:00,71.0,63.8,29.01,East,90,0.0,0.0,78,0.00,,---,0.00,0.00,VWS V14.01,2013-06-06 23:51:00,
2013-06-06 19:56:00,71.0,63.8,29.01,ESE,112,0.0,0.0,78,0.00,,---,0.00,0.00,VWS V14.01,2013-06-06 23:56:00,
2013-06-06 20:01:00,71.0,63.8,29.01,NW,315,0.0,0.0,78,0.00,,---,0.00,0.00,VWS V14.01,2013-06-07 00:01:00,
2013-06-06 20:06:00,71.0,64.5,29.01,NNW,337,0.0,0.0,80,0.00,,---,0.00,0.00,VWS V14.01,2013-06-07 00:06:00,
2013-06-06 20:11:00,71.0,64.2,29.01,WNW,292,0.0,0.0,79,0.00,,---,0.00,0.00,VWS V14.01,2013-06-07 00:11:00,
2013-06-06 20:16:00,71.0,64.5,29.01,NE,45,0.0,0.0,80,0.00,,---,0.00,0.00,VWS V14.01,2013-06-07 00:16:00,
2013-06-06 20:21:00,70.0,63.5,29.01,NNE,22,0.0,0.0,80,0.00,,---,0.00,0.00,VWS V14.01,2013-06-07 00:21:00,
2013-06-06 20:26:00,70.0,63.9,29.01,NE,45,0.0,0.0,81,0.00,,---,0.00,0.00,VWS V14.01,2013-06-07 00:26:00,
2013-06-06 20:31:00,70.0,63.9,29.01,NE,45,0.0,0.0,81,0.00,,---,0.00,0.00,VWS V14.01,2013-06-07 00:31:00,
2013-06-06 20:36:00,69.0,62.9,29.01,NNW,337,0.0,0.0,81,0.00,,---,0.00,0.00,VWS V14.01,2013-06-07 00:36:00,
2013-06-06 20:41:00,69.0,63.6,29.01,East,90,0.0,0.0,83,0.00,,---,0.00,0.00,VWS V14.01,2013-06-07 00:41:00,
2013-06-06 20:46:00,69.0,63.6,29.02,East,90,0.0,0.0,83,0.00,,---,0.00,0.00,VWS V14.01,2013-06-07 00:46:00,
2013-06-06 20:51:00,68.0,63.0,29.02,NNE,22,0.0,0.0,84,0.00,,---,0.00,0.00,VWS V14.01,2013-06-07 00:51:00,
2013-06-06 20:56:00,68.0,63.3,29.02,NNE,22,0.0,0.0,85,0.00,,---,0.00,0.00,VWS V14.01,2013-06-07 00:56:00,
2013-06-06 21:01:00,68.0,63.7,29.02,NNE,22,0.0,0.0,86,0.00,,---,0.00,0.00,VWS V14.01,2013-06-07 01:01:00,
2013-06-06 21:06:00,67.0,63.0,29.02,NNE,22,0.0,0.0,87,0.00,,---,0.00,0.00,VWS V14.01,2013-06-07 01:06:00,
2013-06-06 21:11:00,67.0,63.3,29.02,NNE,22,0.0,0.0,88,0.00,,---,0.00,0.00,VWS V14.01,2013-06-07 01:11:00,
2013-06-06 21:16:00,67.0,63.3,29.02,NNE,22,0.0,0.0,88,0.00,,---,0.00,0.00,VWS V14.01,2013-06-07 01:16:00,
2013-06-06 21:21:00,66.0,63.0,29.02,NNE,22,0.0,0.0,90,0.00,,---,0.00,0.00,VWS V14.01,2013-06-07 01:21:00,
2013-06-06 21:26:00,66.0,63.6,29.03,NNE,22,0.0,0.0,92,0.00,,---,0.00,0.00,VWS V14.01,2013-06-07 01:26:00,
2013-06-06 21:31:00,66.0,63.6,29.03,NNE,22,0.0,0.0,92,0.00,,---,0.00,0.00,VWS V14.01,2013-06-07 01:31:00,
2013-06-06 21:36:00,66.0,63.9,29.03,North,360,0.0,0.0,93,0.00,,---,0.00,0.00,VWS V14.01,2013-06-07 01:36:00,
2013-06-06 21:41:00,66.0,63.6,29.03,North,360,0.0,0.0,92,0.00,,---,0.00,0.00,VWS V14.01,2013-06-07 01:41:00,
2013-06-06 21:46:00,65.0,62.6,29.02,North,360,0.0,0.0,92,0.00,,---,0.00,0.00,VWS V14.01,2013-06-07 01:46:00,
2013-06-06 21:51:00,65.0,62.9,29.02,North,360,0.0,0.0,93,0.00,,---,0.00,0.00,VWS V14.01,2013-06-07 01:51:00,
2013-06-06 21:56:00,65.0,62.9,29.02,North,360,0.0,0.0,93,0.00,,---,0.00,0.00,VWS V14.01,2013-06-07 01:56:00,
2013-06-06 22:01:00,65.0,62.9,29.02,North,360,0.0,0.0,93,0.00,,---,0.00,0.00,VWS V14.01,2013-06-07 02:01:00,
2013-06-06 22:06:00,65.0,63.5,29.03,North,360,0.0,0.0,95,0.00,,---,0.00,0.00,VWS V14.01,2013-06-07 02:06:00,
2013-06-06 22:11:00,65.0,63.8,29.03,North,360,0.0,0.0,96,0.00,,---,0.00,0.00,VWS V14.01,2013-06-07 02:11:00,
2013-06-06 22:16:00,64.0,63.1,29.03,North,360,0.0,0.0,97,0.00,,---,0.00,0.00,VWS V14.01,2013-06-07 02:16:00,
2013-06-06 22:21:00,64.0,63.7,29.03,North,360,0.0,0.0,99,0.00,,---,0.00,0.00,VWS V14.01,2013-06-07 02:21:00,
2013-06-06 22:26:00,63.0,62.7,29.03,North,360,0.0,0.0,99,0.00,,---,0.00,0.00,VWS V14.01,2013-06-07 02:26:00,
2013-06-06 22:31:00,63.0,62.7,29.03,North,360,0.0,0.0,99,0.00,,---,0.00,0.00,VWS V14.01,2013-06-07 02:31:00,
2013-06-06 22:36:00,63.0,63.0,29.04,North,360,0.0,0.0,100,0.00,,---,0.00,0.00,VWS V14.01,2013-06-07 02:36:00,
2013-06-06 22:41:00,62.0,62.0,29.04,North,360,0.0,0.0,100,0.00,,---,0.00,0.00,VWS V14.01,2013-06-07 02:41:00,
2013-06-06 22:46:00,62.0,62.0,29.05,North,360,0.0,0.0,100,0.00,,---,0.00,0.00,VWS V14.01,2013-06-07 02:46:00,
2013-06-06 22:51:00,62.0,62.0,29.05,North,360,0.0,0.0,100,0.00,,---,0.00,0.00,VWS V14.01,2013-06-07 02:51:00,
2013-06-06 22:56:00,61.0,61.0,29.05,North,360,0.0,0.0,100,0.00,,---,0.00,0.00,VWS V14.01,2013-06-07 02:56:00,
2013-06-06 23:01:00,61.0,61.0,29.05,North,360,0.0,0.0,100,0.00,,---,0.00,0.00,VWS V14.01,2013-06-07 03:01:00,
2013-06-06 23:02:00,59.0,59.0,29.06,North,360,0.0,0.0,100,0.00,,---,0.00,0.00,VWS V14.01,2013-06-07 03:02:00,
2013-06-06 23:03:00,58.0,58.0,29.06,North,360,0.0,0.0,100,0.00,,---,0.00,0.00,VWS V14.01,2013-06-07 03:03:00,
2013-06-06 23:04:00,59.0,59.0,29.06,North,360,0.0,0.0,100,0.00,,---,0.00,0.00,VWS V14.01,2013-06-07 03:04:00,
2013-06-06 23:05:00,58.0,58.0,29.06,North,360,0.0,0.0,100,0.00,,---,0.00,0.00,VWS V14.01,2013-06-07 03:05:00,
2013-06-06 23:06:00,60.0,60.0,29.06,North,360,0.0,0.0,100,0.00,,---,0.00,0.00,VWS V14.01,2013-06-07 03:06:00,
2013-06-06 23:07:00,58.0,58.0,29.06,North,360,0.0,0.0,100,0.00,,---,0.00,0.00,VWS V14.01,2013-06-07 03:07:00,
2013-06-06 23:08:00,58.0,58.0,29.06,North,360,0.0,0.0,100,0.00,,---,0.00,0.00,VWS V14.01,2013-06-07 03:08:00,
2013-06-06 23:09:00,58.0,58.0,29.06,North,360,0.0,0.0,100,0.00,,---,0.00,0.00,VWS V14.01,2013-06-07 03:09:00,
2013-06-06 23:10:00,58.0,58.0,29.06,North,360,0.0,0.0,100,0.00,,---,0.00,0.00,VWS V14.01,2013-06-07 03:10:00,
2013-06-06 23:11:00,60.0,60.0,29.06,North,360,0.0,0.0,100,0.00,,---,0.00,0.00,VWS V14.01,2013-06-07 03:11:00,
2013-06-06 23:12:00,58.0,58.0,29.06,North,360,0.0,0.0,100,0.00,,---,0.00,0.00,VWS V14.01,2013-06-07 03:12:00,
2013-06-06 23:13:00,58.0,58.0,29.06,North,360,0.0,0.0,100,0.00,,---,0.00,0.00,VWS V14.01,2013-06-07 03:13:00,
2013-06-06 23:14:00,59.0,59.0,29.06,North,360,0.0,0.0,100,0.00,,---,0.00,0.00,VWS V14.01,2013-06-07 03:14:00,
2013-06-06 23:15:00,59.0,59.0,29.06,North,360,0.0,0.0,100,0.00,,---,0.00,0.00,VWS V14.01,2013-06-07 03:15:00,
2013-06-06 23:16:00,60.0,60.0,29.06,North,360,0.0,0.0,100,0.00,,---,0.00,0.00,VWS V14.01,2013-06-07 03:16:00,
2013-06-06 23:17:00,59.0,59.0,29.06,North,360,0.0,0.0,100,0.00,,---,0.00,0.00,VWS V14.01,2013-06-07 03:17:00,
2013-06-06 23:19:00,59.0,59.0,29.06,North,360,0.0,0.0,100,0.00,,---,0.00,0.00,VWS V14.01,2013-06-07 03:19:00,
2013-06-06 23:20:00,59.0,59.0,29.06,North,360,0.0,0.0,100,0.00,,---,0.00,0.00,VWS V14.01,2013-06-07 03:20:00,
2013-06-06 23:21:00,60.0,60.0,29.06,North,360,0.0,0.0,100,0.00,,---,0.00,0.00,VWS V14.01,2013-06-07 03:21:00,
2013-06-06 23:22:00,59.0,59.0,29.06,North,360,0.0,0.0,100,0.00,,---,0.00,0.00,VWS V14.01,2013-06-07 03:22:00,
2013-06-06 23:23:00,59.0,59.0,29.06,North,360,0.0,0.0,100,0.00,,---,0.00,0.00,VWS V14.01,2013-06-07 03:23:00,
2013-06-06 23:24:00,59.0,59.0,29.06,NNW,337,0.0,0.0,100,0.00,,---,0.00,0.00,VWS V14.01,2013-06-07 03:24:00,
2013-06-06 23:26:00,60.0,60.0,29.06,North,360,0.0,0.0,100,0.00,,---,0.00,0.00,VWS V14.01,2013-06-07 03:26:00,
2013-06-06 23:31:00,60.0,60.0,29.06,North,360,0.0,0.0,100,0.00,,---,0.00,0.00,VWS V14.01,2013-06-07 03:31:00,
2013-06-06 23:36:00,60.0,60.0,29.06,North,360,0.0,0.0,100,0.00,,---,0.00,0.00,VWS V14.01,2013-06-07 03:36:00,
2013-06-06 23:41:00,59.0,59.0,29.06,North,360,0.0,0.0,100,0.00,,---,0.00,0.00,VWS V14.01,2013-06-07 03:41:00,
2013-06-06 23:46:00,59.0,59.0,29.07,North,360,0.0,0.0,100,0.00,,---,0.00,0.00,VWS V14.01,2013-06-07 03:46:00,
2013-06-06 23:51:00,59.0,59.0,29.07,North,360,0.0,0.0,100,0.00,,---,0.00,0.00,VWS V14.01,2013-06-07 03:51:00,
2013-06-06 23:56:00,59.0,59.0,29.06,North,360,0.0,0.0,100,0.00,,---,0.00,0.00,VWS V14.01,2013-06-07 03:56:00,